Stations météo

réclame
Mon MeteoGroup
Volkel, Pays-Bas (6375): Température de l'air & dewpoint: 18.10.2018 01:00:00 - 24.10.2018 01:00:00 (CEST)Volkel, Pays-Bas (6375): Température de l'air 5cm: 18.10.2018 01:00:00 - 24.10.2018 01:00:00 (CEST)Volkel, Pays-Bas (6375): Vitesse du vent & gusts: 18.10.2018 01:00:00 - 24.10.2018 01:00:00 (CEST)Volkel, Pays-Bas (6375): Direction du vent: 18.10.2018 01:00:00 - 24.10.2018 01:00:00 (CEST)Volkel, Pays-Bas (6375): reduced air pressure: 18.10.2018 01:00:00 - 24.10.2018 01:00:00 (CEST)Volkel, Pays-Bas (6375): visibility: 18.10.2018 01:00:00 - 24.10.2018 01:00:00 (CEST)Volkel, Pays-Bas (6375): Quantités de précipitations: 18.10.2018 01:00:00 - 24.10.2018 01:00:00 (CEST)
Date & Time tt [°C] td [°C] tt 5cm [°C] ff [km/h] ff [knt] fx [km/h] fx [knt] dd ppp [hPa] vv [km] rr [mm]
24.10.2018 01:00:00 15,0 11,0 14,2 18 10 - - W 1022,5 10 -
24.10.2018 00:00:00 14,7 10,9 14,3 21 11 36 19 W 1022,6 10 0,0
23.10.2018 23:00:00 14,4 10,6 14,0 13 7 29 16 W 1023,3 10 0,0
23.10.2018 22:00:00 14,7 10,3 14,2 16 9 32 18 W 1023,3 10 0,0
23.10.2018 21:00:00 14,1 9,7 13,7 16 9 32 18 W 1023,4 10 0,0
23.10.2018 20:00:00 13,7 9,4 13,3 16 9 32 18 W 1023,4 10 0,0
23.10.2018 19:00:00 13,4 9,4 13,0 13 7 32 18 W 1023,5 10 0,0
23.10.2018 18:00:00 13,3 9,2 13,0 18 10 40 21 W 1023,4 10 0,0
23.10.2018 17:00:00 13,6 8,8 13,4 18 10 43 23 W 1023,3 10 0,0
23.10.2018 16:00:00 13,8 8,8 13,6 21 11 43 23 W 1023,4 10 0,0
23.10.2018 15:00:00 14,1 9,3 14,2 26 14 43 23 W 1023,2 10 0,0
23.10.2018 14:00:00 14,1 9,3 14,3 24 13 47 25 W 1023,3 10 0,0
23.10.2018 13:00:00 13,7 8,6 14,1 22 12 50 27 W 1024,0 10 0,0
23.10.2018 12:00:00 12,9 8,5 12,6 22 12 40 21 W 1024,6 10 0,0
23.10.2018 11:00:00 10,9 8,1 10,8 18 10 29 16 WSW 1025,2 10 0,0
23.10.2018 10:00:00 9,4 7,2 9,2 18 10 29 16 SW 1026,1 10 0,0
23.10.2018 09:00:00 8,8 6,7 8,4 22 12 32 18 SW 1026,0 10 0,0
23.10.2018 08:00:00 9,0 6,4 8,3 22 12 29 16 WSW 1026,7 10 0,0
23.10.2018 07:00:00 7,7 5,7 7,0 21 11 29 16 SW 1027,1 10 0,0
23.10.2018 06:00:00 7,1 5,2 6,2 21 11 29 16 SW 1027,6 10 0,0
23.10.2018 05:00:00 6,3 4,7 4,3 15 8 22 12 SW 1029,6 10 0,0
23.10.2018 04:00:00 4,8 3,6 3,2 15 8 18 10 SW 1029,6 10 0,0
23.10.2018 03:00:00 2,9 2,0 2,0 15 8 18 10 SW 1031,0 10 0,0
23.10.2018 02:00:00 1,6 0,7 -0,2 9 5 11 6 SW 1032,4 10 0,0
23.10.2018 01:00:00 3,5 3,0 0,1 9 5 11 6 SW 1033,1 10 0,0
23.10.2018 00:00:00 2,7 1,8 0,5 5 3 11 6 WSW 1033,9 10 0,0
22.10.2018 23:00:00 4,9 4,0 -0,2 9 5 11 6 SW 1034,2 10 0,0
22.10.2018 22:00:00 3,9 2,7 0,1 5 3 7 4 W 1034,3 10 0,0
22.10.2018 21:00:00 7,7 4,2 3,2 4 2 11 6 - 1034,2 10 0,0
22.10.2018 20:00:00 9,4 4,7 6,8 8 4 14 8 NNW 1034,2 10 0,0
22.10.2018 19:00:00 10,5 4,8 7,9 5 3 18 10 NNW 1033,6 10 0,0
22.10.2018 18:00:00 12,6 5,9 11,7 13 7 25 14 N 1033,3 10 0,0
22.10.2018 17:00:00 13,8 5,7 13,4 13 7 25 14 NNW 1033,2 10 0,0
22.10.2018 16:00:00 15,0 6,1 15,1 9 5 18 10 N 1032,4 10 0,0
22.10.2018 15:00:00 14,2 6,3 14,1 13 7 29 16 N 1032,9 10 0,0
22.10.2018 14:00:00 14,9 6,4 14,3 15 8 32 18 N 1032,6 10 0,0
22.10.2018 13:00:00 14,5 7,2 14,5 13 7 29 16 N 1032,7 10 0,0
22.10.2018 12:00:00 14,1 8,7 12,9 15 8 32 18 N 1032,4 10 0,0
22.10.2018 11:00:00 13,4 10,5 13,8 13 7 25 14 N 1032,1 10 0,0
22.10.2018 10:00:00 12,2 10,7 11,9 9 5 18 10 N 1031,3 10 0,0
22.10.2018 09:00:00 12,1 10,9 11,8 11 6 22 12 N 1030,3 10 0,0
22.10.2018 08:00:00 12,2 11,3 11,9 15 8 29 16 N 1029,0 10 0,8
22.10.2018 07:00:00 12,5 12,3 12,1 9 5 22 12 NNW 1028,0 1,7 0,1
22.10.2018 06:00:00 12,1 9,9 11,6 5 3 11 6 NW 1027,5 7 0,0
22.10.2018 05:00:00 10,6 8,3 10,0 4 2 11 6 WSW 1027,1 8 0,0
22.10.2018 04:00:00 10,5 7,8 8,2 8 4 7 4 W 1027,0 10 0,0
22.10.2018 03:00:00 10,4 7,8 7,6 5 3 7 4 SW 1026,9 10 0,0
22.10.2018 02:00:00 10,6 8,0 9,0 4 2 7 4 - 1026,9 10 0,0
22.10.2018 01:00:00 10,7 8,2 9,1 4 2 4 2 - 1027,0 10 0,0
22.10.2018 00:00:00 11,6 8,3 10,6 4 2 4 2 - 1026,9 10 0,0
21.10.2018 23:00:00 11,7 8,3 10,9 4 2 7 4 SSW 1026,9 10 0,0
21.10.2018 22:00:00 10,6 8,1 9,7 2 1 4 2 NNW 1026,9 10 0,0
21.10.2018 21:00:00 9,1 7,0 5,9 2 1 4 2 S 1026,7 10 0,0
21.10.2018 20:00:00 9,4 7,0 5,4 0 0 4 2 N 1026,6 10 0,0
21.10.2018 19:00:00 11,3 7,1 8,3 2 1 7 4 SW 1026,8 10 0,0
21.10.2018 18:00:00 14,8 6,9 13,8 4 2 11 6 - 1026,7 10 0,0
21.10.2018 17:00:00 16,4 6,1 17,2 9 5 14 8 S 1026,9 10 0,0
21.10.2018 16:00:00 16,6 6,3 18,2 8 4 18 10 S 1027,3 10 0,0
21.10.2018 15:00:00 16,6 6,8 19,5 5 3 14 8 S 1027,8 10 0,0
21.10.2018 14:00:00 15,3 7,6 16,8 8 4 18 10 S 1028,5 10 0,0
21.10.2018 13:00:00 14,9 7,5 16,7 9 5 14 8 SW 1029,2 10 0,0
21.10.2018 12:00:00 13,4 7,2 15,5 8 4 14 8 SSE 1029,8 10 0,0
21.10.2018 11:00:00 10,9 7,6 11,9 5 3 11 6 SSE 1030,0 8 0,0
21.10.2018 10:00:00 8,7 7,1 8,7 8 4 11 6 SSW 1029,9 5 0,0
21.10.2018 09:00:00 3,5 3,4 0,8 2 1 4 2 SSW 1029,6 2,6 0,0
21.10.2018 08:00:00 3,2 3,2 -0,2 0 0 4 2 N 1029,2 0,5 0,0
21.10.2018 07:00:00 4,0 4,0 -0,2 4 2 7 4 - 1029,5 0,6 0,0
21.10.2018 06:00:00 3,8 3,5 0,9 4 2 4 2 SE 1029,8 2,2 0,0
21.10.2018 05:00:00 4,6 4,6 2,7 2 1 4 2 SW 1030,0 6 0,0
21.10.2018 04:00:00 4,5 4,5 1,1 4 2 7 4 WSW 1030,2 3,0 0,0
21.10.2018 03:00:00 4,7 4,3 3,3 4 2 4 2 SW 1030,3 4,1 0,0
21.10.2018 02:00:00 3,8 3,6 0,1 2 1 4 2 WSW 1030,8 8 0,0
21.10.2018 01:00:00 4,0 4,0 -0,1 0 0 0 0 N 1030,9 3,1 0,0
21.10.2018 00:00:00 5,0 4,9 0,8 2 1 4 2 WSW 1031,0 1,6 0,0
20.10.2018 23:00:00 5,5 5,5 0,8 4 2 4 2 - 1031,2 8 0,0
20.10.2018 22:00:00 5,7 5,7 0,9 0 0 4 2 N 1031,6 9 0,0
20.10.2018 21:00:00 6,5 5,9 2,4 5 3 7 4 SW 1031,2 10 0,0
20.10.2018 20:00:00 8,0 7,1 2,8 4 2 7 4 WSW 1031,1 10 0,0
20.10.2018 19:00:00 9,3 7,2 5,5 0 0 0 0 N 1031,1 10 0,0
20.10.2018 18:00:00 13,4 7,7 12,1 2 1 11 6 NNW 1031,0 10 0,0
20.10.2018 17:00:00 14,1 7,5 14,2 8 4 14 8 NW 1031,1 10 0,0
20.10.2018 16:00:00 15,0 7,0 14,9 8 4 14 8 NW 1031,1 10 0,0
20.10.2018 15:00:00 14,8 6,5 16,2 5 3 11 6 - 1031,4 10 0,0
20.10.2018 14:00:00 15,3 6,7 16,6 8 4 14 8 WSW 1031,8 10 0,0
20.10.2018 13:00:00 13,8 6,3 15,7 4 2 7 4 - 1032,3 10 0,0
20.10.2018 12:00:00 12,5 6,8 14,5 5 3 11 6 SSW 1031,7 10 0,0
20.10.2018 11:00:00 8,7 7,1 9,4 4 2 4 2 - 1032,1 8 0,0
20.10.2018 10:00:00 5,1 4,7 5,0 2 1 4 2 SSW 1031,6 6 0,0
20.10.2018 09:00:00 3,4 3,4 0,2 2 1 4 2 SW 1030,7 3,4 0,0
20.10.2018 08:00:00 1,7 1,5 -1,7 2 1 7 4 SW 1030,2 6 0,0
20.10.2018 07:00:00 2,0 1,8 -2,5 4 2 7 4 NNW 1029,8 3,1 0,0
20.10.2018 06:00:00 1,3 1,0 -2,1 5 3 7 4 NNW 1029,5 3,3 0,0
20.10.2018 05:00:00 3,4 3,4 -1,1 2 1 4 2 - 1028,7 6 0,0
20.10.2018 04:00:00 4,0 4,0 -0,7 2 1 7 4 NNE 1028,6 3,3 0,0
20.10.2018 03:00:00 4,9 4,9 1,1 4 2 11 6 NNW 1028,6 9 0,0
20.10.2018 02:00:00 5,5 5,0 1,7 4 2 11 6 NNW 1028,1 10 0,0
20.10.2018 01:00:00 7,8 6,7 6,4 4 2 11 6 - 1027,7 10 0,0
20.10.2018 00:00:00 7,7 6,5 6,0 9 5 11 6 N 1027,6 10 0,0
19.10.2018 23:00:00 7,9 6,6 4,7 8 4 11 6 NNW 1027,4 10 0,0
19.10.2018 22:00:00 6,3 6,2 1,6 5 3 7 4 N 1026,8 10 0,0
19.10.2018 21:00:00 8,6 6,9 3,8 5 3 7 4 NNW 1026,5 10 0,0
19.10.2018 20:00:00 9,0 6,0 5,3 5 3 7 4 NNW 1025,8 10 0,0
19.10.2018 19:00:00 10,8 7,6 6,0 5 3 7 4 NNW 1025,3 10 0,0
19.10.2018 18:00:00 14,4 8,2 13,1 5 3 11 6 N 1024,5 10 0,0
19.10.2018 17:00:00 15,6 7,8 15,7 8 4 14 8 NNE 1024,4 10 0,0
19.10.2018 16:00:00 16,4 8,7 17,7 5 3 14 8 NNE 1024,3 10 0,0
19.10.2018 15:00:00 16,3 8,5 17,9 11 6 18 10 NE 1024,6 10 0,0
19.10.2018 14:00:00 15,5 9,1 17,5 8 4 14 8 NE 1025,0 10 0,0
19.10.2018 13:00:00 14,4 9,4 17,2 13 7 18 10 E 1025,4 10 0,0
19.10.2018 12:00:00 12,9 9,2 15,1 9 5 14 8 ENE 1025,5 10 0,0
19.10.2018 11:00:00 11,4 8,3 12,8 9 5 14 8 ENE 1025,7 10 0,0
19.10.2018 10:00:00 9,7 7,3 9,8 8 4 14 8 NE 1025,6 10 0,0
19.10.2018 09:00:00 8,6 7,1 8,0 5 3 11 6 NE 1025,5 10 0,0
19.10.2018 08:00:00 7,8 6,5 6,5 5 3 14 8 NE 1025,3 10 0,0
19.10.2018 07:00:00 8,0 6,1 7,0 9 5 18 10 NE 1025,1 10 0,0
19.10.2018 06:00:00 9,0 6,5 8,1 11 6 18 10 NE 1025,0 10 0,0
19.10.2018 05:00:00 8,9 6,6 7,9 11 6 18 10 NE 1025,0 10 0,0
19.10.2018 04:00:00 8,9 6,8 7,4 11 6 22 12 NE 1025,0 10 0,0
19.10.2018 03:00:00 9,1 6,9 7,8 13 7 22 12 NE 1025,2 10 0,0
19.10.2018 02:00:00 9,6 7,1 8,4 8 4 14 8 NNE 1025,5 10 0,0
19.10.2018 01:00:00 9,5 7,0 7,8 8 4 18 10 NE 1025,7 10 0,0
19.10.2018 00:00:00 10,3 7,2 8,9 13 7 18 10 NE 1025,6 10 0,0
18.10.2018 23:00:00 11,8 7,6 10,8 13 7 25 14 NE 1025,8 10 0,0
18.10.2018 22:00:00 13,3 7,9 12,6 13 7 25 14 NE 1025,7 10 0,0
18.10.2018 21:00:00 14,0 8,1 13,4 13 7 25 14 NNE 1025,4 10 0,0
18.10.2018 20:00:00 14,3 8,5 13,3 5 3 18 10 NNE 1024,9 10 0,0
18.10.2018 19:00:00 14,4 9,6 13,6 5 3 11 6 N 1024,6 10 0,0
18.10.2018 18:00:00 15,0 9,8 14,2 9 5 18 10 NE 1024,3 10 0,0
18.10.2018 17:00:00 15,4 10,4 15,1 8 4 14 8 NE 1024,3 10 0,0
18.10.2018 16:00:00 15,6 10,7 15,8 9 5 14 8 NNE 1024,5 10 0,0
18.10.2018 15:00:00 15,6 10,8 15,8 11 6 22 12 N 1024,6 10 0,0
18.10.2018 14:00:00 15,2 11,3 15,6 15 8 25 14 NNE 1024,7 10 0,0
18.10.2018 13:00:00 15,1 11,2 15,5 11 6 25 14 N 1024,9 10 0,0
18.10.2018 12:00:00 14,4 12,2 14,6 11 6 22 12 N 1024,9 10 0,0
18.10.2018 11:00:00 13,8 12,4 13,7 9 5 18 10 N 1024,6 10 0,0
18.10.2018 10:00:00 13,3 12,5 13,3 8 4 14 8 N 1024,2 8 0,0
18.10.2018 09:00:00 12,2 11,9 11,8 5 3 11 6 N 1023,8 4,5 0,0
18.10.2018 08:00:00 11,5 11,2 11,1 4 2 7 4 - 1023,5 4,2 0,0
18.10.2018 07:00:00 10,7 10,7 9,5 5 3 11 6 N 1023,1 4,2 0,0
18.10.2018 06:00:00 10,7 10,6 7,4 4 2 7 4 N 1022,8 3,5 0,0
18.10.2018 05:00:00 11,5 11,1 10,7 8 4 14 8 N 1022,7 4,8 0,0
18.10.2018 04:00:00 12,7 11,8 12,4 9 5 14 8 NNW 1022,5 6 0,0
18.10.2018 03:00:00 13,1 12,1 12,6 5 3 11 6 N 1022,4 8 0,0
18.10.2018 02:00:00 13,3 12,3 12,9 5 3 11 6 N 1022,2 8 0,0
18.10.2018 01:00:00 12,9 12,1 12,3 4 2 7 4 - 1022,0 8 0,0

tt = Température de l'air
td = dewpoint
tt 5cm = Température de l'air 5cm
ff = Vitesse du vent
fx = gusts
dd = Direction du vent
ppp = reduced air pressure
vv = visibility
rr = Quantités de précipitations

stations d'obs. à proximité